| time (UTC) | temp C | wind direction | speed KPH | gust KPH | rain 1hr cm | rain 24hr cm | rain mn cm | humidity % | barometer mb |
| 20260507223345 | 7 | 29 | 4.8 | 8.0 | 0.05 | 0.99 | 0.03 | 90 | 1016.8 |
| 20260507222845 | 7 | 29 | 4.8 | 8.0 | 0.05 | 0.99 | 0.03 | 90 | 1016.8 |
| 20260507222347 | 7 | 27 | 3.2 | 6.4 | 0.05 | 0.99 | 0.03 | 90 | 1016.7 |
| 20260507221847 | 7 | 26 | 3.2 | 8.0 | 0.05 | 0.99 | 0.03 | 90 | 1016.7 |
| 20260507221629 | 7 | 32 | 4.8 | 8.0 | 0.05 | 0.99 | 0.03 | 90 | 1016.7 |
| 20260507220847 | 7 | 27 | 3.2 | 8.0 | 0.05 | 0.99 | 0.03 | 90 | 1016.7 |
| 20260507220347 | 7 | 30 | 4.8 | 4.8 | 0.05 | 0.99 | 0.00 | 90 | 1016.7 |
| 20260507215847 | 7 | 32 | 1.6 | 6.4 | 0.03 | 0.99 | 0.99 | 90 | 1016.7 |
| 20260507215347 | 7 | 29 | 4.8 | 8.0 | 0.03 | 0.99 | 0.99 | 90 | 1016.6 |
| 20260507214846 | 7 | 22 | 4.8 | 8.0 | 0.03 | 0.99 | 0.99 | 90 | 1016.6 |
| 20260507214346 | 7 | 23 | 3.2 | 6.4 | 0.03 | 0.99 | 0.99 | 90 | 1016.6 |
| 20260507213847 | 7 | 23 | 3.2 | 6.4 | 0.03 | 0.99 | 0.99 | 90 | 1016.6 |
| 20260507213346 | 7 | 23 | 1.6 | 8.0 | 0.00 | 0.99 | 0.99 | 90 | 1016.5 |
| 20260507212846 | 7 | 23 | 6.4 | 8.0 | 0.00 | 0.99 | 0.99 | 90 | 1016.5 |
| 20260507212629 | 7 | 44 | 3.2 | 6.4 | 0.00 | 0.99 | 0.99 | 90 | 1016.5 |
| 20260507212127 | 7 | 8 | 4.8 | 6.4 | 0.00 | 0.99 | 0.99 | 90 | 1016.4 |
| 20260507211345 | 7 | 26 | 4.8 | 8.0 | 0.00 | 0.99 | 0.99 | 90 | 1016.4 |
| 20260507210847 | 7 | 26 | 3.2 | 8.0 | 0.00 | 0.99 | 0.99 | 90 | 1016.4 |
| 20260507210347 | 7 | 37 | 3.2 | 6.4 | 0.00 | 0.99 | 0.99 | 90 | 1016.3 |
| 20260507205847 | 7 | 39 | 4.8 | 8.0 | 0.00 | 0.99 | 0.99 | 90 | 1016.2 |
| 20260507205346 | 7 | 60 | 6.4 | 8.0 | 0.00 | 0.99 | 0.99 | 90 | 1016.2 |
| 20260507204844 | 7 | 50 | 1.6 | 9.7 | 0.00 | 0.99 | 0.99 | 90 | 1016.2 |
| 20260507204633 | 7 | 50 | 6.4 | 9.7 | 0.00 | 0.99 | 0.99 | 90 | 1016.1 |
| 20260507204126 | 7 | 16 | 4.8 | 9.7 | 0.00 | 0.99 | 0.99 | 90 | 1016.0 |
| 20260507203629 | 7 | 33 | 6.4 | 9.7 | 0.00 | 0.99 | 0.99 | 90 | 1016.1 |
| 20260507202843 | 7 | 53 | 9.7 | 11.3 | 0.00 | 0.99 | 0.99 | 90 | 1015.9 |
| 20260507202630 | 7 | 27 | 6.4 | 11.3 | 0.00 | 0.99 | 0.99 | 90 | 1015.9 |
| 20260507202129 | 7 | 30 | 8.0 | 9.7 | 0.00 | 0.99 | 0.99 | 90 | 1015.8 |
| 20260507201345 | 7 | 37 | 6.4 | 9.7 | 0.00 | 0.99 | 0.99 | 90 | 1015.7 |
| 20260507200845 | 7 | 8 | 8.0 | 9.7 | 0.00 | 0.99 | 0.99 | 90 | 1015.7 |
| 20260507200622 | 7 | 51 | 4.8 | 8.0 | 0.00 | 0.99 | 0.99 | 90 | 1015.7 |
| 20260507195845 | 7 | 25 | 4.8 | 8.0 | 0.00 | 0.99 | 0.99 | 90 | 1015.5 |
| 20260507195342 | 7 | 25 | 6.4 | 9.7 | 0.00 | 0.99 | 0.99 | 90 | 1015.6 |
| 20260507194844 | 7 | 43 | 3.2 | 9.7 | 0.00 | 0.99 | 0.99 | 90 | 1015.5 |
| 20260507194342 | 7 | 32 | 8.0 | 9.7 | 0.00 | 0.99 | 0.99 | 90 | 1015.5 |
| 20260507193844 | 7 | 47 | 4.8 | 8.0 | 0.00 | 0.99 | 0.99 | 90 | 1015.5 |
| 20260507193342 | 7 | 50 | 1.6 | 9.7 | 0.00 | 0.99 | 0.99 | 90 | 1015.5 |
| 20260507192844 | 7 | 32 | 6.4 | 9.7 | 0.00 | 0.99 | 0.99 | 90 | 1015.4 |
| 20260507192715 | 7 | 51 | 6.4 | 9.7 | 0.00 | 0.99 | 0.99 | 90 | 1015.4 |
| 20260507192407 | 7 | 41 | 4.8 | 9.7 | 0.00 | 0.99 | 0.99 | 90 | 1015.5 |
| 20260507191343 | 7 | 23 | 8.0 | 9.7 | 0.00 | 0.99 | 0.99 | 89 | 1015.4 |
| 20260507191219 | 7 | 44 | 6.4 | 11.3 | 0.00 | 0.99 | 0.99 | 89 | 1015.3 |
| 20260507191212 | 7 | 50 | 4.8 | 11.3 | 0.00 | 0.99 | 0.99 | 89 | 1015.4 |
| 20260507190129 | 7 | 50 | 6.4 | 11.3 | 0.00 | 0.99 | 0.99 | 89 | 1015.2 |
| 20260507185342 | 7 | 41 | 6.4 | 11.3 | 0.00 | 0.99 | 0.99 | 89 | 1015.1 |
| 20260507184843 | 7 | 34 | 6.4 | 11.3 | 0.00 | 0.99 | 0.99 | 89 | 1015.2 |
| 20260507184343 | 7 | 39 | 6.4 | 11.3 | 0.00 | 0.99 | 0.99 | 89 | 1015.2 |
| 20260507183843 | 7 | 37 | 6.4 | 14.5 | 0.00 | 0.99 | 0.99 | 89 | 1015.1 |
| 20260507183343 | 7 | 33 | 8.0 | 14.5 | 0.00 | 0.99 | 0.99 | 89 | 1015.0 |
| 20260507182845 | 7 | 25 | 11.3 | 14.5 | 0.00 | 0.99 | 0.99 | 89 | 1014.9 |
| 20260507182342 | 7 | 18 | 8.0 | 16.1 | 0.00 | 0.99 | 0.99 | 89 | 1014.9 |
| 20260507181841 | 7 | 50 | 6.4 | 17.7 | 0.00 | 0.99 | 0.99 | 89 | 1014.8 |
| 20260507181341 | 7 | 32 | 11.3 | 17.7 | 0.00 | 0.99 | 0.99 | 89 | 1014.7 |
| 20260507180843 | 7 | 43 | 9.7 | 16.1 | 0.00 | 0.99 | 0.99 | 89 | 1014.7 |
| 20260507180343 | 7 | 30 | 4.8 | 16.1 | 0.00 | 0.99 | 0.99 | 89 | 1014.7 |
| 20260507175842 | 8 | 9 | 9.7 | 14.5 | 0.00 | 0.99 | 0.99 | 89 | 1014.7 |
| 20260507175336 | 8 | 39 | 9.7 | 14.5 | 0.00 | 0.99 | 0.99 | 89 | 1014.5 |
| 20260507174832 | 8 | 41 | 8.0 | 11.3 | 0.00 | 0.99 | 0.99 | 89 | 1014.5 |
| 20260507174333 | 8 | 27 | 4.8 | 16.1 | 0.00 | 0.99 | 0.99 | 89 | 1014.4 |
| 20260507173832 | 8 | 20 | 8.0 | 16.1 | 0.00 | 0.99 | 0.99 | 89 | 1014.4 |
| 20260507173331 | 8 | 6 | 6.4 | 14.5 | 0.00 | 0.99 | 0.99 | 89 | 1014.3 |
| 20260507173054 | 8 | 29 | 9.7 | 17.7 | 0.00 | 0.99 | 0.99 | 89 | 1014.4 |
| 20260507172307 | 8 | 3 | 9.7 | 17.7 | 0.00 | 0.99 | 0.99 | 89 | 1014.2 |
| 20260507172049 | 8 | 32 | 6.4 | 14.5 | 0.00 | 0.99 | 0.99 | 89 | 1014.2 |
| 20260507171302 | 8 | 356 | 6.4 | 11.3 | 0.00 | 0.99 | 0.99 | 89 | 1014.2 |
| 20260507170804 | 8 | 33 | 4.8 | 11.3 | 0.00 | 0.99 | 0.99 | 89 | 1014.0 |
| 20260507170303 | 8 | 20 | 8.0 | 19.3 | 0.00 | 0.99 | 0.99 | 89 | 1014.1 |
| 20260507165802 | 8 | 20 | 9.7 | 19.3 | 0.00 | 0.99 | 0.99 | 89 | 1013.9 |
| 20260507165306 | 8 | 9 | 8.0 | 16.1 | 0.03 | 0.99 | 0.99 | 89 | 1014.0 |
| 20260507164803 | 8 | 37 | 9.7 | 14.5 | 0.03 | 0.99 | 0.99 | 89 | 1013.9 |
| 20260507164304 | 8 | 5 | 12.9 | 14.5 | 0.03 | 0.99 | 0.99 | 89 | 1013.8 |
| 20260507163803 | 8 | 34 | 4.8 | 19.3 | 0.03 | 0.99 | 0.99 | 89 | 1013.8 |
| 20260507163304 | 8 | 9 | 11.3 | 19.3 | 0.03 | 0.99 | 0.99 | 89 | 1013.7 |
| 20260507162804 | 8 | 51 | 9.7 | 16.1 | 0.03 | 0.99 | 0.99 | 89 | 1013.8 |
| 20260507162307 | 8 | 30 | 3.2 | 9.7 | 0.03 | 0.99 | 0.99 | 89 | 1013.8 |
| 20260507161803 | 8 | 30 | 6.4 | 11.3 | 0.05 | 0.99 | 0.99 | 89 | 1013.8 |
| 20260507161303 | 8 | 54 | 4.8 | 11.3 | 0.05 | 0.99 | 0.99 | 89 | 1013.8 |
| 20260507160804 | 8 | 39 | 4.8 | 11.3 | 0.05 | 0.99 | 0.99 | 89 | 1013.8 |
| 20260507160304 | 8 | 44 | 9.7 | 11.3 | 0.08 | 0.99 | 0.99 | 89 | 1013.7 |
| 20260507155803 | 8 | 30 | 6.4 | 14.5 | 0.10 | 0.89 | 0.99 | 89 | 1013.8 |
| 20260507155306 | 8 | 29 | 9.7 | 14.5 | 0.08 | 0.89 | 0.97 | 89 | 1013.7 |
| 20260507154803 | 8 | 16 | 8.0 | 14.5 | 0.08 | 0.89 | 0.97 | 89 | 1013.7 |
| 20260507154354 | 8 | 33 | 8.0 | 17.7 | 0.10 | 0.89 | 0.97 | 89 | 1013.6 |
| 20260507154341 | 8 | 27 | 6.4 | 17.7 | 0.10 | 0.89 | 0.97 | 89 | 1013.6 |
| 20260507153304 | 8 | 32 | 9.7 | 14.5 | 0.10 | 0.89 | 0.97 | 89 | 1013.5 |
| 20260507152902 | 8 | 50 | 4.8 | 14.5 | 0.10 | 0.89 | 0.97 | 89 | 1013.6 |
| 20260507152840 | 8 | 57 | 9.7 | 11.3 | 0.10 | 0.89 | 0.97 | 89 | 1013.6 |
| 20260507151806 | 8 | 34 | 8.0 | 17.7 | 0.08 | 0.89 | 0.94 | 88 | 1013.6 |
| 20260507151304 | 8 | 32 | 12.9 | 17.7 | 0.08 | 0.89 | 0.94 | 88 | 1013.5 |
| 20260507150805 | 8 | 26 | 11.3 | 14.5 | 0.05 | 0.89 | 0.91 | 88 | 1013.5 |
| 20260507150304 | 8 | 12 | 6.4 | 11.3 | 0.05 | 0.89 | 0.89 | 88 | 1013.5 |
| 20260507145804 | 8 | 19 | 4.8 | 8.0 | 0.03 | 0.86 | 0.89 | 88 | 1013.4 |
| 20260507145306 | 8 | 19 | 4.8 | 8.0 | 0.03 | 0.86 | 0.89 | 88 | 1013.4 |
| 20260507144803 | 8 | 33 | 4.8 | 9.7 | 0.03 | 0.86 | 0.89 | 88 | 1013.5 |
| 20260507144304 | 8 | 23 | 6.4 | 17.7 | 0.00 | 0.86 | 0.86 | 88 | 1013.5 |
| 20260507143803 | 8 | 29 | 6.4 | 17.7 | 0.00 | 0.86 | 0.86 | 88 | 1013.5 |
| 20260507143303 | 8 | 46 | 9.7 | 11.3 | 0.00 | 0.86 | 0.86 | 88 | 1013.5 |
| 20260507142803 | 8 | 49 | 6.4 | 8.0 | 0.00 | 0.86 | 0.86 | 88 | 1013.5 |
| 20260507142306 | 8 | 80 | 1.6 | 8.0 | 0.00 | 0.86 | 0.86 | 88 | 1013.5 |
| 20260507142051 | 8 | 75 | 4.8 | 8.0 | 0.00 | 0.86 | 0.86 | 88 | 1013.3 |
| 20260507141551 | 8 | 46 | 3.2 | 8.0 | 0.00 | 0.86 | 0.86 | 88 | 1013.3 |
| 20260507140804 | 8 | 84 | 6.4 | 9.7 | 0.00 | 0.86 | 0.86 | 88 | 1013.4 |
| 20260507140303 | 8 | 96 | 6.4 | 9.7 | 0.00 | 0.86 | 0.86 | 88 | 1013.4 |
| 20260507135804 | 8 | 65 | 3.2 | 9.7 | 0.00 | 0.86 | 0.86 | 88 | 1013.3 |
| 20260507135713 | 8 | 54 | 4.8 | 11.3 | 0.00 | 0.86 | 0.86 | 88 | 1013.2 |
| 20260507135409 | 8 | 53 | 8.0 | 14.5 | 0.00 | 0.86 | 0.86 | 88 | 1013.1 |
| 20260507135350 | 8 | 51 | 4.8 | 8.0 | 0.00 | 0.86 | 0.86 | 88 | 1013.2 |
| 20260507133802 | 8 | 64 | 8.0 | 14.5 | 0.00 | 0.86 | 0.86 | 88 | 1013.1 |
| 20260507133553 | 8 | 54 | 9.7 | 14.5 | 0.00 | 0.86 | 0.86 | 88 | 1013.0 |
| 20260507132804 | 8 | 64 | 3.2 | 11.3 | 0.00 | 0.86 | 0.86 | 88 | 1013.1 |
| 20260507132601 | 8 | 81 | 6.4 | 11.3 | 0.00 | 0.86 | 0.86 | 88 | 1013.0 |
| 20260507131805 | 8 | 65 | 6.4 | 11.3 | 0.00 | 0.86 | 0.86 | 88 | 1013.1 |
| 20260507131302 | 8 | 27 | 8.0 | 11.3 | 0.00 | 0.86 | 0.86 | 88 | 1013.1 |
| 20260507130805 | 8 | 30 | 4.8 | 11.3 | 0.00 | 0.86 | 0.86 | 88 | 1013.0 |
| 20260507130302 | 8 | 49 | 6.4 | 14.5 | 0.00 | 0.86 | 0.86 | 88 | 1012.9 |
| 20260507125802 | 8 | 30 | 6.4 | 17.7 | 0.00 | 0.86 | 0.86 | 88 | 1012.8 |
| 20260507125306 | 8 | 57 | 12.9 | 17.7 | 0.00 | 0.86 | 0.86 | 88 | 1012.8 |
| 20260507124803 | 8 | 32 | 9.7 | 17.7 | 0.00 | 0.86 | 0.86 | 89 | 1012.7 |
| 20260507124304 | 8 | 32 | 6.4 | 11.3 | 0.00 | 0.86 | 0.86 | 89 | 1012.8 |
| 20260507123804 | 8 | 44 | 8.0 | 11.3 | 0.00 | 0.86 | 0.86 | 89 | 1012.6 |
| 20260507123302 | 8 | 33 | 8.0 | 11.3 | 0.00 | 0.86 | 0.86 | 89 | 1012.5 |
| 20260507122804 | 8 | 49 | 8.0 | 14.5 | 0.00 | 0.86 | 0.86 | 89 | 1012.5 |
| 20260507122307 | 8 | 29 | 9.7 | 17.7 | 0.00 | 0.86 | 0.86 | 89 | 1012.6 |
| 20260507121803 | 8 | 68 | 9.7 | 17.7 | 0.00 | 0.86 | 0.86 | 89 | 1012.5 |
| 20260507121302 | 9 | 67 | 11.3 | 16.1 | 0.00 | 0.86 | 0.86 | 89 | 1012.4 |
| 20260507120803 | 9 | 61 | 6.4 | 11.3 | 0.00 | 0.86 | 0.86 | 89 | 1012.3 |
| 20260507120619 | 9 | 57 | 8.0 | 16.1 | 0.00 | 0.86 | 0.86 | 90 | 1012.3 |
| 20260507120323 | 8 | 47 | 6.4 | 14.5 | 0.00 | 0.86 | 0.86 | 89 | 1012.3 |
| 20260507115255 | 8 | 30 | 6.4 | 16.1 | 0.00 | 0.86 | 0.86 | 90 | 1012.3 |
| 20260507114740 | 8 | 18 | 6.4 | 14.5 | 0.00 | 0.86 | 0.86 | 90 | 1012.3 |
| 20260507114236 | 8 | 44 | 6.4 | 19.3 | 0.03 | 0.86 | 0.86 | 89 | 1012.2 |
| 20260507113738 | 8 | 27 | 9.7 | 19.3 | 0.03 | 0.86 | 0.86 | 89 | 1012.2 |
| 20260507113234 | 8 | 67 | 8.0 | 17.7 | 0.03 | 0.86 | 0.86 | 89 | 1012.3 |
| 20260507112733 | 8 | 44 | 9.7 | 11.3 | 0.05 | 0.86 | 0.86 | 90 | 1012.3 |
| 20260507112233 | 8 | 78 | 6.4 | 11.3 | 0.05 | 0.86 | 0.86 | 90 | 1012.2 |
| 20260507111735 | 8 | 30 | 8.0 | 11.3 | 0.05 | 0.86 | 0.86 | 90 | 1012.2 |
| 20260507111233 | 8 | 58 | 6.4 | 11.3 | 0.05 | 0.86 | 0.86 | 90 | 1012.2 |
| 20260507110735 | 8 | 46 | 3.2 | 14.5 | 0.05 | 0.86 | 0.86 | 90 | 1012.2 |
| 20260507110231 | 8 | 36 | 6.4 | 14.5 | 0.05 | 0.86 | 0.86 | 90 | 1012.0 |
| 20260507105733 | 8 | 34 | 9.7 | 14.5 | 0.05 | 0.79 | 0.86 | 90 | 1012.1 |
| 20260507105233 | 8 | 37 | 6.4 | 16.1 | 0.05 | 0.79 | 0.86 | 90 | 1012.0 |
| 20260507105020 | 8 | 46 | 9.7 | 16.1 | 0.05 | 0.79 | 0.84 | 90 | 1012.0 |
| 20260507104233 | 8 | 29 | 3.2 | 14.5 | 0.05 | 0.79 | 0.84 | 90 | 1011.9 |
| 20260507103732 | 8 | 39 | 9.7 | 14.5 | 0.05 | 0.79 | 0.84 | 90 | 1012.1 |
| 20260507103516 | 8 | 44 | 9.7 | 14.5 | 0.05 | 0.79 | 0.84 | 90 | 1012.0 |
| 20260507102733 | 8 | 34 | 4.8 | 11.3 | 0.03 | 0.79 | 0.81 | 90 | 1012.0 |
| 20260507102232 | 8 | 5 | 6.4 | 9.7 | 0.03 | 0.79 | 0.81 | 90 | 1012.0 |
| 20260507101734 | 8 | 2 | 4.8 | 9.7 | 0.03 | 0.79 | 0.81 | 90 | 1012.0 |
| 20260507101232 | 8 | 32 | 6.4 | 9.7 | 0.03 | 0.79 | 0.81 | 90 | 1012.0 |
| 20260507100733 | 8 | 12 | 6.4 | 9.7 | 0.00 | 0.79 | 0.79 | 90 | 1011.9 |
| 20260507100232 | 8 | 26 | 4.8 | 6.4 | 0.00 | 0.79 | 0.79 | 90 | 1011.8 |
| 20260507095734 | 8 | 22 | 3.2 | 8.0 | 0.00 | 0.79 | 0.79 | 90 | 1011.9 |
| 20260507095231 | 8 | 32 | 4.8 | 8.0 | 0.00 | 0.79 | 0.79 | 90 | 1011.9 |
| 20260507094733 | 8 | 51 | 3.2 | 8.0 | 0.00 | 0.79 | 0.79 | 90 | 1011.8 |
| 20260507094232 | 8 | 47 | 3.2 | 6.4 | 0.00 | 0.79 | 0.79 | 90 | 1011.7 |
| 20260507093732 | 8 | 12 | 4.8 | 11.3 | 0.00 | 0.79 | 0.79 | 90 | 1011.7 |
| 20260507093231 | 8 | 53 | 6.4 | 11.3 | 0.00 | 0.79 | 0.79 | 90 | 1011.5 |
| 20260507092733 | 8 | 85 | 4.8 | 9.7 | 0.00 | 0.79 | 0.79 | 90 | 1011.5 |
| 20260507092256 | 8 | 43 | 8.0 | 11.3 | 0.00 | 0.79 | 0.79 | 90 | 1011.4 |
| 20260507092245 | 8 | 87 | 6.4 | 11.3 | 0.00 | 0.79 | 0.79 | 90 | 1011.4 |
| 20260507091519 | 8 | 36 | 6.4 | 11.3 | 0.00 | 0.79 | 0.79 | 90 | 1011.3 |
| 20260507090732 | 8 | 57 | 8.0 | 11.3 | 0.00 | 0.79 | 0.79 | 90 | 1011.3 |
| 20260507090510 | 8 | 22 | 8.0 | 11.3 | 0.00 | 0.79 | 0.79 | 90 | 1011.1 |
| 20260507085732 | 8 | 37 | 6.4 | 14.5 | 0.00 | 0.79 | 0.74 | 90 | 1011.1 |
| 20260507085231 | 8 | 37 | 8.0 | 14.5 | 0.00 | 0.79 | 0.74 | 90 | 1011.1 |
| 20260507084731 | 8 | 33 | 3.2 | 11.3 | 0.03 | 0.79 | 0.74 | 90 | 1011.1 |
| 20260507084230 | 8 | 58 | 8.0 | 9.7 | 0.03 | 0.79 | 0.74 | 90 | 1010.9 |
| 20260507083732 | 7 | 34 | 4.8 | 9.7 | 0.03 | 0.79 | 0.74 | 90 | 1010.8 |
| 20260507083513 | 7 | 12 | 6.4 | 9.7 | 0.03 | 0.79 | 0.74 | 90 | 1010.9 |
| 20260507082731 | 7 | 63 | 6.4 | 9.7 | 0.03 | 0.79 | 0.74 | 90 | 1010.9 |
| 20260507082230 | 7 | 56 | 3.2 | 11.3 | 0.03 | 0.79 | 0.74 | 90 | 1010.8 |
| 20260507081732 | 8 | 63 | 6.4 | 11.3 | 0.05 | 0.79 | 0.74 | 90 | 1010.8 |
| 20260507081230 | 7 | 26 | 8.0 | 11.3 | 0.05 | 0.79 | 0.74 | 90 | 1010.7 |
| 20260507080731 | 7 | 67 | 6.4 | 9.7 | 0.05 | 0.79 | 0.74 | 90 | 1010.7 |
| 20260507080229 | 7 | 71 | 4.8 | 8.0 | 0.05 | 0.79 | 0.79 | 90 | 1010.7 |
| 20260507075729 | 7 | 65 | 4.8 | 8.0 | 0.05 | 0.74 | 0.79 | 90 | 1010.5 |
| 20260507075227 | 7 | 63 | 6.4 | 9.7 | 0.05 | 0.74 | 0.79 | 90 | 1010.4 |
| 20260507074730 | 7 | 60 | 6.4 | 9.7 | 0.05 | 0.74 | 0.79 | 90 | 1010.3 |
| 20260507074524 | 7 | 56 | 4.8 | 9.7 | 0.05 | 0.74 | 0.79 | 90 | 1010.4 |
| 20260507074113 | 7 | 65 | 4.8 | 9.7 | 0.05 | 0.74 | 0.79 | 90 | 1010.3 |
| 20260507073803 | 7 | 37 | 4.8 | 9.7 | 0.05 | 0.74 | 0.79 | 90 | 1010.3 |
| 20260507072741 | 7 | 33 | 6.4 | 11.3 | 0.05 | 0.74 | 0.79 | 89 | 1010.2 |
| 20260507072229 | 7 | 36 | 4.8 | 16.1 | 0.05 | 0.74 | 0.76 | 90 | 1010.1 |
| 20260507071728 | 7 | 53 | 8.0 | 16.1 | 0.05 | 0.74 | 0.76 | 90 | 1010.0 |
| 20260507071229 | 7 | 50 | 4.8 | 9.7 | 0.05 | 0.76 | 0.76 | 90 | 1010.0 |
| 20260507070728 | 7 | 41 | 6.4 | 14.5 | 0.03 | 0.76 | 0.74 | 90 | 1009.9 |
| 20260507070514 | 7 | 41 | 9.7 | 14.5 | 0.03 | 0.76 | 0.74 | 90 | 1009.9 |
| 20260507065730 | 7 | 6 | 8.0 | 11.3 | 0.03 | 0.74 | 0.74 | 90 | 1009.8 |
| 20260507065228 | 7 | 25 | 8.0 | 11.3 | 0.03 | 0.74 | 0.74 | 90 | 1009.7 |
| 20260507064729 | 7 | 26 | 4.8 | 11.3 | 0.03 | 0.74 | 0.74 | 90 | 1009.5 |
| 20260507064230 | 7 | 60 | 8.0 | 14.5 | 0.03 | 0.74 | 0.74 | 90 | 1009.6 |
| 20260507063729 | 7 | 22 | 4.8 | 14.5 | 0.00 | 0.74 | 0.71 | 90 | 1009.4 |
| 20260507063228 | 7 | 46 | 8.0 | 11.3 | 0.00 | 0.74 | 0.71 | 90 | 1009.4 |
| 20260507062728 | 7 | 50 | 6.4 | 14.5 | 0.00 | 0.74 | 0.71 | 90 | 1009.5 |
| 20260507062512 | 7 | 10 | 9.7 | 17.7 | 0.00 | 0.74 | 0.71 | 90 | 1009.5 |
| 20260507062008 | 7 | 354 | 8.0 | 17.7 | 0.00 | 0.74 | 0.71 | 89 | 1009.5 |
| 20260507061227 | 7 | 19 | 8.0 | 9.7 | 0.00 | 0.74 | 0.71 | 89 | 1009.4 |
| 20260507060727 | 7 | 40 | 3.2 | 9.7 | 0.00 | 0.74 | 0.71 | 89 | 1009.3 |
| 20260507060225 | 8 | 34 | 6.4 | 9.7 | 0.00 | 0.74 | 0.71 | 89 | 1009.3 |
| 20260507055727 | 8 | 19 | 4.8 | 9.7 | 0.00 | 0.74 | 0.71 | 89 | 1009.2 |
| 20260507055226 | 8 | 25 | 6.4 | 11.3 | 0.00 | 0.74 | 0.71 | 89 | 1009.2 |
| 20260507054726 | 8 | 348 | 8.0 | 11.3 | 0.00 | 0.74 | 0.71 | 89 | 1009.2 |
| 20260507054225 | 8 | 18 | 8.0 | 11.3 | 0.00 | 0.74 | 0.71 | 90 | 1009.1 |
| 20260507053728 | 8 | 15 | 6.4 | 11.3 | 0.00 | 0.74 | 0.71 | 89 | 1008.9 |
| 20260507053518 | 8 | 12 | 6.4 | 14.5 | 0.00 | 0.74 | 0.71 | 89 | 1008.9 |
| 20260507052727 | 8 | 29 | 6.4 | 14.5 | 0.00 | 0.74 | 0.71 | 89 | 1008.9 |
| 20260507052225 | 8 | 39 | 6.4 | 11.3 | 0.00 | 0.74 | 0.71 | 89 | 1008.8 |
| 20260507051726 | 8 | 16 | 4.8 | 16.1 | 0.00 | 0.74 | 0.71 | 89 | 1008.9 |
| 20260507051227 | 8 | 12 | 8.0 | 16.1 | 0.00 | 0.74 | 0.71 | 89 | 1008.8 |
| 20260507050726 | 8 | 34 | 6.4 | 16.1 | 0.00 | 0.74 | 0.71 | 89 | 1008.7 |
| 20260507050223 | 8 | 58 | 6.4 | 14.5 | 0.00 | 0.74 | 0.71 | 89 | 1008.6 |
| 20260507045725 | 8 | 34 | 6.4 | 14.5 | 0.00 | 0.74 | 0.71 | 89 | 1008.5 |
| 20260507045225 | 8 | 46 | 6.4 | 9.7 | 0.00 | 0.74 | 0.71 | 89 | 1008.5 |
| 20260507045011 | 8 | 26 | 6.4 | 9.7 | 0.00 | 0.74 | 0.71 | 89 | 1008.5 |
| 20260507044225 | 8 | 63 | 6.4 | 8.0 | 0.00 | 0.74 | 0.71 | 89 | 1008.5 |
| 20260507043727 | 8 | 47 | 6.4 | 8.0 | 0.00 | 0.74 | 0.71 | 89 | 1008.4 |
| 20260507043222 | 8 | 68 | 6.4 | 11.3 | 0.00 | 0.74 | 0.71 | 89 | 1008.3 |
| 20260507042723 | 8 | 39 | 8.0 | 14.5 | 0.03 | 0.74 | 0.71 | 89 | 1008.3 |
| 20260507042223 | 8 | 64 | 9.7 | 14.5 | 0.03 | 0.74 | 0.71 | 89 | 1008.2 |
| 20260507041725 | 8 | 74 | 8.0 | 14.5 | 0.05 | 0.74 | 0.71 | 89 | 1008.3 |
| 20260507041224 | 8 | 56 | 4.8 | 16.1 | 0.05 | 0.74 | 0.71 | 89 | 1008.2 |
| 20260507040725 | 8 | 27 | 6.4 | 16.1 | 0.10 | 0.74 | 0.71 | 89 | 1008.0 |
| 20260507040223 | 8 | 47 | 6.4 | 16.1 | 0.15 | 0.74 | 0.71 | 89 | 1007.8 |
| 20260507035724 | 8 | 29 | 9.7 | 16.1 | 0.20 | 0.58 | 0.71 | 89 | 1007.8 |
| 20260507035221 | 8 | 34 | 6.4 | 14.5 | 0.23 | 0.58 | 0.71 | 89 | 1007.8 |
| 20260507034724 | 8 | 34 | 9.7 | 14.5 | 0.23 | 0.58 | 0.71 | 89 | 1007.8 |
| 20260507034223 | 8 | 34 | 6.4 | 11.3 | 0.28 | 0.58 | 0.71 | 88 | 1007.8 |
| 20260507033724 | 8 | 40 | 8.0 | 11.3 | 0.33 | 0.58 | 0.71 | 88 | 1007.8 |
| 20260507033223 | 8 | 20 | 6.4 | 9.7 | 0.36 | 0.58 | 0.71 | 88 | 1007.8 |
| 20260507033008 | 8 | 359 | 4.8 | 14.5 | 0.38 | 0.58 | 0.71 | 88 | 1007.9 |
| 20260507032515 | 8 | 6 | 4.8 | 14.5 | 0.41 | 0.58 | 0.71 | 88 | 1007.8 |
| 20260507032003 | 8 | 34 | 8.0 | 14.5 | 0.43 | 0.58 | 0.69 | 88 | 1007.7 |
| 20260507031222 | 8 | 47 | 8.0 | 11.3 | 0.43 | 0.58 | 0.66 | 88 | 1007.8 |
| 20260507030725 | 8 | 358 | 4.8 | 14.5 | 0.43 | 0.58 | 0.61 | 88 | 1007.8 |
| 20260507030510 | 8 | 9 | 6.4 | 17.7 | 0.43 | 0.58 | 0.56 | 88 | 1007.6 |
| 20260507025723 | 8 | 32 | 8.0 | 17.7 | 0.38 | 0.18 | 0.51 | 88 | 1007.5 |
| 20260507025459 | 8 | 41 | 9.7 | 17.7 | 0.38 | 0.18 | 0.48 | 88 | 1007.6 |
| 20260507025008 | 8 | 26 | 6.4 | 11.3 | 0.38 | 0.18 | 0.46 | 88 | 1007.8 |
| 20260507024222 | 8 | 27 | 8.0 | 11.3 | 0.36 | 0.18 | 0.43 | 87 | 1007.9 |
| 20260507023724 | 8 | 3 | 8.0 | 14.5 | 0.33 | 0.18 | 0.41 | 87 | 1008.0 |
| 20260507023222 | 8 | 9 | 8.0 | 14.5 | 0.33 | 0.18 | 0.36 | 87 | 1007.9 |
| 20260507022723 | 8 | 3 | 3.2 | 11.3 | 0.28 | 0.18 | 0.33 | 87 | 1007.9 |
| 20260507022501 | 8 | 9 | 9.7 | 16.1 | 0.28 | 0.18 | 0.30 | 87 | 1007.8 |
| 20260507021758 | 8 | 23 | 6.4 | 14.5 | 0.23 | 0.18 | 0.23 | 87 | 1007.7 |
| 20260507021748 | 8 | 10 | 11.3 | 16.1 | 0.23 | 0.18 | 0.25 | 87 | 1007.8 |
| 20260507021015 | 8 | 13 | 3.2 | 17.7 | 0.20 | 0.18 | 0.20 | 87 | 1007.7 |
| 20260507020508 | 8 | 39 | 11.3 | 17.7 | 0.15 | 0.18 | 0.15 | 87 | 1007.7 |
| 20260507015722 | 8 | 6 | 6.4 | 11.3 | 0.15 | 0.05 | 0.15 | 87 | 1007.7 |
| 20260507015221 | 8 | 25 | 8.0 | 11.3 | 0.13 | 0.05 | 0.13 | 87 | 1007.6 |
| 20260507014721 | 8 | 8 | 9.7 | 11.3 | 0.10 | 0.10 | 0.10 | 86 | 1007.5 |
| 20260507014220 | 8 | 10 | 6.4 | 11.3 | 0.08 | 0.15 | 0.08 | 86 | 1007.5 |
| 20260507013721 | 8 | 36 | 8.0 | 14.5 | 0.05 | 0.18 | 0.05 | 86 | 1007.4 |
| 20260507013221 | 8 | 40 | 11.3 | 14.5 | 0.05 | 0.23 | 0.05 | 86 | 1007.4 |
| 20260507012721 | 8 | 8 | 6.4 | 16.1 | 0.05 | 0.28 | 0.03 | 86 | 1007.5 |
| 20260507012219 | 9 | 10 | 6.4 | 16.1 | 0.03 | 0.33 | 0.03 | 85 | 1007.3 |
| 20260507011721 | 9 | 25 | 9.7 | 16.1 | 0.03 | 0.33 | 0.03 | 85 | 1007.3 |
| 20260507011219 | 9 | 32 | 9.7 | 19.3 | 0.00 | 0.33 | 0.00 | 85 | 1007.3 |
| 20260507010720 | 9 | 18 | 6.4 | 19.3 | 0.00 | 0.33 | 0.00 | 85 | 1007.2 |
| 20260507010219 | 9 | 358 | 12.9 | 17.7 | 0.00 | 0.33 | 0.00 | 85 | 1007.2 |
| 20260507005721 | 9 | 2 | 9.7 | 20.9 | 0.00 | 0.36 | 0.00 | 85 | 1007.1 |
| 20260507005219 | 9 | 18 | 12.9 | 20.9 | 0.00 | 0.38 | 0.00 | 85 | 1007.1 |
| 20260507005009 | 9 | 15 | 12.9 | 19.3 | 0.00 | 0.38 | 0.00 | 85 | 1007.0 |
| 20260507004219 | 9 | 30 | 8.0 | 17.7 | 0.00 | 0.38 | 0.00 | 84 | 1007.1 |
| 20260507003720 | 9 | 37 | 4.8 | 14.5 | 0.00 | 0.38 | 0.00 | 84 | 1006.8 |
| 20260507003510 | 10 | 30 | 11.3 | 16.1 | 0.00 | 0.43 | 0.00 | 84 | 1006.8 |
| 20260507002721 | 10 | 33 | 11.3 | 16.1 | 0.00 | 0.51 | 0.00 | 84 | 1006.9 |
| 20260507002501 | 10 | 32 | 8.0 | 14.5 | 0.00 | 0.56 | 0.00 | 84 | 1006.9 |
| 20260507001720 | 10 | 19 | 11.3 | 11.3 | 0.00 | 0.61 | 0.00 | 84 | 1007.0 |
| 20260507001219 | 10 | 25 | 8.0 | 11.3 | 0.00 | 0.61 | 0.00 | 84 | 1007.0 |
| 20260507000802 | 10 | 64 | 6.4 | 9.7 | 0.00 | 0.66 | 0.00 | 84 | 1007.0 |
| 20260507000745 | 10 | 46 | 4.8 | 8.0 | 0.00 | 0.64 | 0.00 | 84 | 1007.0 |
| 20260506235719 | 10 | 75 | 6.4 | 9.7 | 0.00 | 0.66 | 0.00 | 84 | 1007.0 |
| 20260506235218 | 10 | 73 | 3.2 | 9.7 | 0.00 | 0.66 | 0.00 | 84 | 1006.8 |
| 20260506234721 | 10 | 64 | 6.4 | 11.3 | 0.00 | 0.66 | 0.00 | 84 | 1006.6 |
| 20260506234217 | 10 | 54 | 8.0 | 14.5 | 0.00 | 0.69 | 0.00 | 84 | 1006.7 |
| 20260506233719 | 10 | 50 | 8.0 | 14.5 | 0.00 | 0.69 | 0.00 | 84 | 1006.6 |
| 20260506233217 | 10 | 19 | 9.7 | 14.5 | 0.00 | 0.71 | 0.00 | 84 | 1006.7 |
| 20260506232719 | 10 | 356 | 8.0 | 14.5 | 0.00 | 0.71 | 0.00 | 84 | 1006.8 |
| 20260506232509 | 10 | 19 | 6.4 | 16.1 | 0.00 | 0.71 | 0.00 | 83 | 1006.9 |
| 20260506232000 | 10 | 3 | 9.7 | 16.1 | 0.00 | 0.71 | 0.00 | 84 | 1006.9 |
| 20260506231216 | 10 | 19 | 8.0 | 16.1 | 0.00 | 0.71 | 0.00 | 83 | 1006.9 |
| 20260506230719 | 10 | 347 | 8.0 | 16.1 | 0.00 | 0.71 | 0.00 | 83 | 1006.9 |
| 20260506230453 | 10 | 16 | 6.4 | 11.3 | 0.00 | 0.71 | 0.00 | 83 | 1006.9 |
| 20260506225718 | 10 | 1 | 9.7 | 14.5 | 0.00 | 0.71 | 0.00 | 83 | 1006.7 |
| 20260506225217 | 10 | 37 | 6.4 | 14.5 | 0.00 | 0.71 | 0.00 | 83 | 1006.7 |
| 20260506225000 | 10 | 8 | 6.4 | 11.3 | 0.00 | 0.71 | 0.00 | 83 | 1006.7 |
| 20260506224451 | 10 | 6 | 9.7 | 11.3 | 0.00 | 0.71 | 0.00 | 83 | 1006.6 |
| 20260506223717 | 10 | 22 | 4.8 | 11.3 | 0.00 | 0.74 | 0.00 | 83 | 1006.5 |